This is the latest recevied weather packets stored in our database for station/object N2OCK. If no packets are shown the sender has not sent any weather packets the latest 10 day(s).
| Time | Temp. | Humidity | Pressure | Rain* | Wind** | Luminosity | Snow |
|---|---|---|---|---|---|---|---|
| 1778101407 | 15° C | 93% | 1007.4 hPa | 0 mm | - | 174 W/m² | - |
| 1778101105 | 15° C | 94% | 1007.2 hPa | 0 mm | - | 209 W/m² | - |
| 1778100800 | 14.44° C | 95% | 1007.2 hPa | 0 mm | - | 178 W/m² | - |
| 1778100497 | 14.44° C | 95% | 1007.2 hPa | 0 mm | - | 130 W/m² | - |
| 1778100195 | 13.89° C | 95% | 1007.2 hPa | 0 mm | - | 147 W/m² | - |
| 1778099892 | 13.89° C | 95% | 1007.5 hPa | 0 mm | - | 175 W/m² | - |
| 1778099589 | 13.89° C | 96% | 1007.3 hPa | 0 mm | - | 130 W/m² | - |
| 1778099286 | 13.89° C | 95% | 1007.7 hPa | 0 mm | - | 59 W/m² | - |
| 1778098983 | 13.89° C | 95% | 1007.8 hPa | 0 mm | - | 47 W/m² | - |
| 1778098680 | 13.89° C | 95% | 1007.5 hPa | 0 mm | - | 79 W/m² | - |
| 1778098377 | 13.89° C | 95% | 1007.8 hPa | 0 mm | - | 56 W/m² | - |
| 1778098074 | 13.89° C | 95% | 1007.9 hPa | 0 mm | - | 60 W/m² | - |
| 1778097770 | 13.89° C | 95% | 1007.8 hPa | 0 mm | - | 70 W/m² | - |
| 1778097466 | 13.89° C | 95% | 1008.2 hPa | 0 mm | - | 57 W/m² | - |
| 1778097163 | 13.89° C | 95% | 1008 hPa | 0 mm | - | 52 W/m² | - |
| 1778096860 | 13.89° C | 95% | 1007.8 hPa | 0 mm | - | 58 W/m² | - |
| 1778096556 | 13.89° C | 95% | 1008.2 hPa | 0 mm | - | 69 W/m² | - |
| 1778096255 | 13.89° C | 95% | 1008 hPa | 0 mm | - | 70 W/m² | - |
| 1778095951 | 14.44° C | 94% | 1008 hPa | 0 mm | - | 85 W/m² | - |
| 1778095647 | 14.44° C | 93% | 1007.7 hPa | 0 mm | - | 98 W/m² | - |
| 1778095344 | 14.44° C | 93% | 1008 hPa | 0 mm | - | 77 W/m² | - |
| 1778095041 | 14.44° C | 93% | 1008 hPa | 0 mm | - | 104 W/m² | - |
| 1778094737 | 14.44° C | 93% | 1008 hPa | 0 mm | - | 89 W/m² | - |
| 1778094435 | 15° C | 93% | 1007.9 hPa | 0 mm | - | 110 W/m² | - |
| 1778094131 | 15° C | 95% | 1007.9 hPa | 0 mm | - | 254 W/m² | - |
* Rain latest hour (hover to see other rain measurements)
** Current wind speed in m/s (hover to see current wind gust speed)